x

8413320 - Bar Harbor, Me (atgm1) Weather Station

10:30am - Sun 14th Feb 2016 All times are EST. -5 hours from GMT.

  • Wind
    23mph, 28mph gusts
  • Sea Temp 31°f
  • 空気 Temp 1°f
  • Sea Pressure 1020.7mb
  • 8413320 - Bar Harbor, Me
  • 8413320 - Bar Harbor, Me

More Historic Weather Station data

Upgrade to MSW Pro to gain access to the past 30 days of data for over 8000 Wavebouys and Weather Stations around the globe.

Join Pro

Comparision Forecast

View Surf forecast
   
Sun 02/14 10:30am 23 28 mph 1020.7mb 31f 1f
10:24am 22 29 mph 1020.7mb 31f 1f
10:18am 21 29 mph 1020.6mb 31f 1f
10:12am 23 31 mph 1020.6mb 31f -
10:06am 21 30 mph 1020.7mb 31f -
10:00am 23 26 mph 1020.6mb 31f -
9:54am 23 28 mph 1020.6mb 30f -
9:48am 24 29 mph 1020.6mb 30f -
9:42am 18 23 mph 1020.8mb 30f -
9:36am 20 26 mph 1020.7mb 30f -
9:30am 21 26 mph 1020.7mb 30f -
9:24am 21 29 mph 1020.7mb 30f -
9:18am 20 28 mph 1020.5mb 30f -
9:12am 24 31 mph 1020.4mb 30f -1f
9:06am 22 28 mph 1020.5mb 30f -1f
9:00am 21 30 mph 1020.5mb 30f -2f
8:54am 23 28 mph 1020.4mb 30f -3f
8:48am 21 30 mph 1020.3mb 30f -3f
8:42am 24 29 mph 1020.2mb 30f -3f
8:36am 24 31 mph 1020.1mb 30f -3f
8:30am 22 33 mph 1020.1mb 31f -3f
8:24am 22 33 mph 1020.1mb 31f -3f
8:18am 23 31 mph 1020.1mb 31f -3f
8:12am 24 31 mph 1020mb 31f -3f
8:06am 24 31 mph 1019.9mb 31f -3f
8:00am 23 29 mph 1019.7mb 31f -3f
7:54am 23 30 mph 1019.7mb 31f -3f
7:48am 21 33 mph 1019.7mb 31f -3f
7:42am 23 32 mph 1019.5mb 31f -3f
7:36am 24 32 mph 1019.5mb 31f -3f
7:30am 22 28 mph 1019.4mb 31f -3f
7:24am 23 34 mph 1019.1mb 31f -3f
7:18am 23 32 mph 1018.9mb 31f -2f
7:12am 23 29 mph 1018.8mb 31f -2f
7:06am 23 32 mph 1018.6mb 31f -2f
7:00am 22 30 mph 1018.4mb 31f -1f
6:54am 18 30 mph 1018.3mb 31f -2f
6:48am 25 33 mph 1018mb 31f -1f
6:42am 25 31 mph 1017.7mb 31f -1f
6:36am 23 30 mph 1017.6mb 31f -2f
6:30am 24 30 mph 1017.6mb 31f -1f
6:24am 23 32 mph 1017.5mb 31f -1f
6:18am 25 32 mph 1017.1mb 31f -1f
6:12am 24 31 mph 1017.2mb 31f 1f
6:06am 22 29 mph 1017mb 31f -
6:00am 23 31 mph 1017mb 31f -
5:54am 25 31 mph 1016.6mb 31f -
5:48am 22 29 mph 1016.8mb 31f -
5:42am 23 37 mph 1016.4mb 32f -
5:36am 25 33 mph 1016.5mb 32f -
5:30am 23 32 mph 1016.4mb 32f -
5:24am 24 34 mph 1016.4mb 32f -
5:18am 22 29 mph 1016.1mb 32f 1f
5:12am 24 32 mph 1016mb 32f -
5:06am 24 30 mph 1016mb 32f -
5:00am 22 31 mph 1016mb 32f -
4:54am 25 31 mph 1015.8mb 32f -
4:48am  -  mph 1015.7mb 32f -
4:42am  -  mph 1015.5mb 32f 1f
4:36am  -  mph 1015.5mb 32f 1f
4:30am 22 28 mph 1015.3mb 32f -
4:24am 22 31 mph 1015.1mb 32f -
4:18am 21 32 mph 1015mb 32f 1f
4:12am 18 28 mph 1014.8mb 32f 1f
4:06am 23 32 mph 1014.7mb 32f -
4:00am 20 25 mph 1014.6mb 32f 1f
3:54am 21 29 mph 1014.5mb 32f -
3:48am 20 29 mph 1014.5mb 32f 1f
3:42am 20 28 mph 1014.5mb 32f -
3:36am 20 29 mph 1014.4mb 32f -
3:30am 21 28 mph 1014.3mb 32f -
3:24am 20 28 mph 1014.2mb 32f -
3:18am 20 29 mph 1014.1mb 32f -
3:12am 22 29 mph 1014mb 32f -1f
3:06am 21 26 mph 1013.9mb 31f -1f
3:00am 22 30 mph 1013.8mb 32f -
2:54am 23 30 mph 1013.7mb 32f -1f
2:48am 21 30 mph 1013.7mb 32f -1f
2:42am 18 32 mph 1013.7mb 32f -
2:36am 23 31 mph 1013.7mb 32f -1f
2:30am 23 30 mph 1013.8mb 32f -1f
2:24am 21 28 mph 1013.6mb 32f -1f
2:18am 20 28 mph 1013.6mb 32f -1f
2:12am 22 31 mph 1013.5mb 32f -1f
2:06am 21 28 mph 1013.3mb 31f -1f
2:00am 24 31 mph 1013.2mb 31f -1f
1:54am 23 32 mph 1013.2mb 31f -1f
1:48am 21 29 mph 1013.3mb 31f -1f
1:42am 20 31 mph 1013.2mb 31f -1f
1:36am 24 33 mph 1013.2mb 31f -1f
1:30am 22 29 mph 1013.2mb 31f -1f
1:24am 22 28 mph 1013.1mb 31f -1f
1:18am 24 30 mph 1013mb 32f -2f
1:12am 20 26 mph 1013.2mb 32f -2f
1:06am 21 25 mph 1013mb 32f -2f
1:00am 22 29 mph 1013.1mb 32f -1f
12:54am 22 31 mph 1012.9mb 32f -2f
12:48am 23 26 mph 1012.9mb 31f -2f
12:42am 24 33 mph 1013mb 31f -1f
12:36am 20 30 mph 1012.9mb 32f -1f
12:30am 23 29 mph - - -
12:24am 22 26 mph 1012.7mb 33f -1f
12:18am 22 28 mph 1012.7mb 33f -2f
12:12am 22 29 mph 1012.5mb 34f -2f
12:06am 21 28 mph 1012.5mb 33f -2f
12:00am 23 30 mph 1012.5mb 34f -3f
Sat 02/13 11:54pm 21 30 mph 1012.5mb 34f -1f
11:48pm 22 31 mph 1012.5mb - -
11:42pm 23 28 mph 1012.4mb 34f -2f
11:36pm 23 29 mph 1012.5mb 34f -1f
11:30pm 24 31 mph 1012.4mb 34f -1f
11:24pm 26 30 mph 1012.1mb 34f -1f
11:18pm 26 32 mph 1012.2mb 34f -1f
11:12pm 25 32 mph 1012.1mb 34f -
11:06pm 22 29 mph 1012.3mb 34f 1f
11:00pm 21 31 mph 1012.4mb 34f 1f
10:54pm 20 24 mph 1012.2mb 33f 1f
10:48pm 21 32 mph 1012.2mb 34f 1f
10:42pm 24 31 mph 1011.9mb 34f 1f
10:36pm 25 34 mph 1011.9mb 34f 1f
10:30pm 26 33 mph 1011.8mb 34f 1f
10:24pm 28 34 mph 1011.7mb 34f 1f
10:18pm 26 31 mph 1011.8mb 33f 1f
10:12pm 23 33 mph 1011.8mb 33f 1f
10:06pm 25 33 mph 1011.6mb 33f 2f
10:00pm  -  mph 1011.6mb 33f 3f
9:54pm  -  mph 1011.7mb 33f 2f
9:48pm 23 31 mph 1011.6mb 32f 3f
9:42pm 23 33 mph 1011.5mb 33f 4f
9:36pm 28 32 mph 1011.3mb 33f 4f
9:30pm 25 32 mph 1011.3mb 33f 3f
9:24pm 24 32 mph 1011.3mb 32f 4f
9:18pm 28 34 mph 1011.1mb 32f 4f
9:12pm 24 30 mph 1010.8mb 33f 5f
9:06pm 26 31 mph 1010.7mb 33f 5f
9:00pm  -  mph 1010.8mb 33f 6f
8:54pm  -  mph 1010.8mb 33f 6f
8:48pm 25 34 mph - 33f 6f
8:42pm 26 33 mph - 33f 6f
8:36pm 28 32 mph - 33f 6f
8:30pm 26 31 mph 1010.2mb 33f -
8:24pm 25 30 mph 1010mb 33f -
8:18pm  -  mph 1010.1mb 33f 8f
8:12pm  -  mph 1010mb 33f 8f
8:06pm  -  mph 1010mb 33f 8f
8:00pm 25 29 mph 1009.9mb 33f 9f
7:54pm 21 31 mph 1009.9mb 33f 9f
7:48pm 25 30 mph 1009.5mb 33f 10f
7:42pm 23 32 mph 1009.6mb 33f 10f
7:36pm 26 32 mph 1009.4mb 34f 10f
7:30pm 25 31 mph 1009.4mb 34f 11f
7:24pm 23 32 mph 1009.4mb 34f 11f
7:18pm 29 34 mph 1009.2mb 34f 11f
7:12pm 24 30 mph 1009.2mb 34f 11f
7:06pm 25 32 mph 1009.2mb 34f 11f
7:00pm  -  mph 1009.2mb 34f 12f
6:54pm  -  mph 1009.1mb 34f 12f
6:48pm 23 29 mph 1008.9mb 34f 12f
6:42pm 23 32 mph 1009mb 34f 12f
6:36pm 25 33 mph 1008.8mb 34f 12f
6:30pm 28 33 mph 1008.7mb - -
6:24pm 26 32 mph 1008.6mb - -
6:18pm  -  mph 1008.6mb 34f 13f
6:12pm  -  mph 1008.4mb 34f 13f
6:06pm  -  mph 1008.5mb 34f 14f
6:00pm  -  mph 1008.4mb 34f 14f
5:54pm  -  mph 1008mb 34f 14f
5:48pm 28 32 mph 1008mb 34f 14f
5:42pm 26 31 mph 1007.9mb 34f 14f
5:36pm 25 29 mph 1007.7mb 34f 15f
5:30pm 21 25 mph 1007.8mb 34f 16f
5:24pm 18 29 mph 1007.7mb 34f 15f
5:18pm 22 29 mph 1007.7mb 34f 15f
5:12pm 20 28 mph 1007.6mb 34f 16f
5:06pm 18 25 mph 1007.6mb 34f 16f
5:00pm  -  mph 1007.5mb 34f 16f
4:54pm  -  mph 1007.5mb 34f 15f
4:48pm 17 23 mph 1007.5mb 34f 16f
4:42pm 18 22 mph 1007.4mb 34f 15f
4:36pm 18 22 mph 1007.3mb 34f 15f
4:30pm 17 23 mph 1007.2mb 34f 16f
4:24pm 20 24 mph 1007.2mb 34f 15f
4:18pm 17 23 mph 1007mb 34f 15f
4:12pm 17 23 mph 1007mb 34f 15f
4:06pm 18 21 mph 1006.9mb 34f 15f
4:00pm 17 21 mph 1006.8mb 34f 15f
3:54pm 17 21 mph 1006.7mb 34f 16f
3:48pm 20 23 mph 1006.6mb 34f 15f
3:42pm 16 23 mph 1006.5mb 34f 16f
3:36pm 17 23 mph 1006.4mb 34f 16f
3:30pm 17 22 mph 1006.3mb 34f 16f
3:24pm 18 21 mph 1006.2mb 35f 16f
3:18pm 17 22 mph 1006.1mb 35f 16f
3:12pm 18 24 mph 1006mb 35f 16f
3:06pm 17 23 mph 1005.9mb 35f 16f
3:00pm 21 23 mph 1005.8mb 35f 16f
2:54pm 18 22 mph 1005.6mb 35f 17f
2:48pm 18 22 mph 1005.4mb 35f 17f
2:42pm 17 21 mph 1005.4mb 35f 17f
2:36pm 17 22 mph 1005.3mb 35f 17f
2:30pm 16 22 mph 1005.2mb 35f 17f
2:24pm 17 24 mph 1005mb 35f 17f
2:18pm 18 22 mph 1004.9mb 35f 17f
2:12pm 17 22 mph 1004.8mb 35f 17f
2:06pm 17 21 mph 1004.7mb 35f 18f
2:00pm 13 18 mph 1004.7mb 35f 19f
1:54pm 13 20 mph 1004.7mb 35f 19f
1:48pm 13 22 mph 1004.6mb 35f 19f
1:42pm 14 18 mph 1004.5mb 35f 19f
1:36pm 15 21 mph 1004.4mb 34f 20f
1:30pm 13 20 mph 1004.3mb 34f 20f
1:24pm 13 23 mph 1004.3mb 34f 20f
1:18pm 14 18 mph 1004.3mb 34f 20f
1:12pm 13 23 mph 1004.2mb 34f 20f
1:06pm 14 22 mph 1004mb 34f 20f
1:00pm 14 17 mph 1004.1mb 34f 20f
12:54pm 9 15 mph 1004.1mb 34f 21f
12:48pm 13 17 mph 1004mb 34f 21f
12:42pm 14 18 mph 1004mb 34f 20f
12:36pm 15 18 mph 1003.9mb 34f 20f
12:30pm 11 18 mph 1003.9mb 34f 20f
12:24pm 14 17 mph 1003.8mb 34f 20f
12:18pm 15 17 mph 1003.8mb 34f 20f
12:12pm 14 18 mph 1003.8mb 34f 21f
12:06pm 16 20 mph 1003.7mb 34f 21f
12:00pm 14 20 mph 1003.8mb 34f 21f
11:54am 14 18 mph 1003.8mb 34f 21f
11:48am 14 17 mph 1003.9mb 34f 21f
11:42am 16 22 mph 1003.9mb 34f 21f
11:36am 18 23 mph 1004mb 34f 21f
11:30am 15 20 mph 1004.1mb 34f 21f
11:24am 16 20 mph 1004.1mb 34f 21f
11:18am 16 22 mph 1004.2mb 34f 21f
11:12am 15 20 mph 1004.2mb 34f 21f
11:06am 16 22 mph 1004.4mb 34f 21f
11:00am 14 21 mph 1004.5mb 34f 21f
10:54am 15 21 mph 1004.6mb 34f 20f
10:48am 17 23 mph 1004.6mb 34f 20f
10:42am 18 24 mph 1004.6mb 34f 21f
10:36am 16 22 mph 1004.7mb 34f 20f
10:30am 17 22 mph 1004.7mb 34f 20f
10:24am 16 20 mph 1004.7mb 34f 21f
10:18am 17 22 mph 1004.8mb 34f 20f
10:12am 17 23 mph 1004.8mb 34f 20f
10:06am 17 22 mph 1004.8mb 34f 20f
10:00am 16 22 mph 1004.9mb 34f 20f
9:54am 15 21 mph 1004.9mb 34f 20f
9:48am 16 23 mph 1004.9mb 34f 20f
9:42am 18 26 mph 1005mb 34f 20f
9:36am 20 25 mph 1005.1mb 34f 19f
9:30am 20 24 mph 1005.2mb 34f 19f
9:24am 21 28 mph 1005.4mb 34f 19f
9:18am 16 22 mph 1005.6mb 34f 19f
9:12am 16 24 mph 1005.7mb 34f 19f
9:06am 17 23 mph 1005.8mb 34f 19f
9:00am 17 22 mph 1005.7mb 34f 19f
8:54am 18 23 mph 1005.8mb 34f 19f
8:48am 16 21 mph 1005.8mb 34f 19f
8:42am 17 21 mph 1005.9mb 34f 19f
8:36am 18 24 mph 1006mb 34f 19f
8:30am 17 23 mph 1006.1mb 34f 19f
8:24am 20 24 mph 1006.2mb 34f 19f
8:18am 16 21 mph 1006.4mb 34f 19f
8:12am 17 22 mph 1006.5mb 34f 18f
8:06am 16 20 mph 1006.6mb 34f 18f
8:00am 16 21 mph 1006.7mb 34f 18f
7:54am 14 21 mph 1006.8mb 34f 18f
7:48am 14 22 mph 1006.9mb 34f 18f
7:42am 18 23 mph 1007mb 34f 17f
7:36am 15 25 mph 1006.9mb 34f 17f
7:30am 18 22 mph 1007.1mb 34f 17f
7:24am 16 22 mph 1007.1mb 34f 17f
7:18am 17 21 mph 1007.2mb 34f 17f
7:12am 16 20 mph 1007.3mb 34f 18f
7:06am 18 22 mph 1007.3mb 34f 18f
7:00am 18 21 mph 1007.3mb 34f 17f
6:54am 17 21 mph 1007.3mb 34f 18f
6:48am 16 23 mph 1007.4mb 34f 18f
6:42am 16 21 mph 1007.4mb 34f 18f
6:36am 16 20 mph 1007.5mb 34f 18f
6:30am 17 22 mph 1007.6mb 34f 18f
6:24am 16 22 mph 1007.7mb 34f 18f
6:18am 16 21 mph 1007.8mb 34f 18f
6:12am 17 21 mph 1007.7mb 34f 18f
6:06am 17 21 mph 1007.7mb 34f 18f
6:00am 16 22 mph 1007.6mb 34f 18f
5:54am 17 21 mph 1007.7mb 34f 18f
5:48am 20 22 mph 1007.7mb 34f 19f
5:42am 15 20 mph 1007.9mb 34f 18f
5:36am 16 18 mph 1008mb 34f 18f
5:30am 14 17 mph 1008.1mb 34f 18f
5:24am 15 18 mph 1008.1mb 34f 18f
5:18am 15 17 mph 1008.2mb 35f 17f
5:12am 15 18 mph 1008.2mb 35f 18f
5:06am 15 18 mph 1008.2mb 35f 18f
5:00am 15 18 mph 1008.3mb 35f 18f
4:54am 16 20 mph 1008.4mb 35f 18f
4:48am  -  mph 1008.4mb 35f 18f
4:42am  -  mph 1008.5mb 35f 18f
4:36am  -  mph 1008.5mb 35f 18f
4:30am 17 20 mph 1008.6mb 35f 18f
4:24am 16 20 mph 1008.6mb 35f 18f
4:18am 15 18 mph 1008.7mb 35f 19f
4:12am 16 18 mph 1008.8mb 35f 19f
4:06am 14 16 mph 1008.9mb 35f 19f
4:00am 13 14 mph 1008.9mb 35f 19f
3:54am 10 13 mph 1009mb 35f 19f
3:48am 9 14 mph 1009mb 35f 19f
3:42am 9 13 mph 1009mb 35f 20f
3:36am 10 13 mph 1009.1mb 35f 20f
3:30am 11 14 mph 1009.1mb 35f 20f
3:24am 9 11 mph 1009.2mb 35f 20f
3:18am 9 13 mph 1009.3mb 35f 21f
3:12am 10 15 mph 1009.4mb 34f 21f
3:06am 11 16 mph 1009.6mb 34f 22f
3:00am 13 16 mph 1009.7mb 34f 21f
2:54am 14 18 mph 1009.8mb 35f 22f
2:48am 13 15 mph 1010mb 36f 21f
2:42am 13 15 mph 1010.1mb 36f 21f
2:36am 13 15 mph 1010.2mb 36f 21f
2:30am 11 14 mph 1010.3mb 36f 21f
2:24am 11 14 mph 1010.5mb 36f 21f
2:18am 14 18 mph 1010.6mb 36f 21f
2:12am 15 18 mph 1010.8mb 36f 21f
2:06am 15 20 mph 1010.9mb 36f 21f
2:00am 16 20 mph 1011.1mb 36f 21f
1:54am 16 20 mph 1011.1mb 36f 21f
1:48am 20 22 mph 1011.2mb 36f 21f
1:42am 16 21 mph 1011.3mb 37f 21f
1:36am 18 21 mph 1011.4mb 37f 21f
1:30am 15 18 mph 1011.5mb 37f 21f
1:24am 16 18 mph 1011.6mb 37f 20f
1:18am 16 20 mph 1011.8mb 37f 20f
1:12am 16 17 mph 1011.9mb 37f 21f
1:06am 16 18 mph 1012mb 37f 21f
1:00am 14 17 mph 1012.1mb 36f 20f
12:54am 14 16 mph 1012.1mb 36f 21f
12:48am 14 16 mph 1012.2mb 36f 20f
12:42am 15 18 mph 1012.3mb 36f 21f
12:36am 15 17 mph 1012.4mb 37f 21f
12:30am 15 17 mph 1012.4mb 37f 20f
12:24am 16 18 mph 1012.4mb 37f 20f
12:18am 16 18 mph 1012.5mb 37f 20f
12:12am 15 17 mph 1012.5mb 36f 20f
12:06am 15 17 mph 1012.6mb 36f 20f
12:00am 13 15 mph 1012.6mb 36f 20f
Fri 02/12 11:54pm 13 14 mph 1012.8mb 36f 19f
11:48pm 13 14 mph 1012.8mb 36f 19f
11:42pm 11 14 mph 1012.8mb 36f 19f
11:36pm 11 14 mph 1012.9mb 36f 19f
11:30pm 3 6 mph 1012.9mb 37f 18f
11:24pm 2
mph
1012.9mb 36f 17f
11:18pm  -  2 mph 1013mb 36f 17f
11:12pm 1 6 mph 1013mb 36f 18f
11:06pm 2 5 mph 1013mb 36f 17f
11:00pm  -  2 mph 1013.1mb 36f 16f
10:54pm  -  2 mph 1013.2mb 36f 16f
10:48pm 1 3 mph 1013.2mb 36f 16f
10:42pm 1 3 mph 1013.2mb 36f 16f
10:36pm  -  3 mph 1013.2mb 36f 16f
10:30pm 3 5 mph 1013.4mb 36f 16f
10:24pm 1 5 mph 1013.5mb 36f 16f
10:18pm  -  mph 1013.6mb 36f 16f
10:12pm  -  mph 1013.6mb 36f 16f
10:06pm  -  mph 1013.7mb 36f 15f
10:00pm  -  mph 1013.8mb 36f 15f
9:54pm  -  mph 1013.9mb 36f 16f
9:48pm 3 5 mph 1014mb 36f 16f
9:42pm 2 3 mph 1014.1mb 36f 16f
9:36pm 1
mph
1014.2mb 36f 15f
9:30pm  -  2 mph 1014.4mb 36f -
9:24pm 2 3 mph 1014.5mb 35f -
9:18pm  -  mph 1014.6mb 35f 14f
9:12pm  -  mph 1014.7mb 35f 15f
9:06pm  -  mph 1014.9mb 35f 15f
9:00pm  -  mph 1015mb 35f 15f
8:54pm  -  mph 1015.1mb 35f 15f
8:48pm 2 3 mph 1015.2mb 35f 15f
8:42pm  -  2 mph 1015.4mb 35f 15f
8:36pm  -  1 mph 1015.6mb 34f 14f
8:30pm 1 3 mph 1015.6mb 34f 14f
8:24pm  -  2 mph 1015.7mb 34f 15f
8:18pm  -  2 mph 1015.8mb 34f 15f
8:12pm  -  2 mph 1015.8mb 34f 15f
8:06pm 1 2 mph 1015.8mb 34f 15f
8:00pm  -  mph 1015.9mb 34f 15f
7:54pm  -  mph 1015.9mb 34f 15f
7:48pm  -  mph 1016mb 34f 15f
7:42pm  -  mph 1016.1mb 34f 15f
7:36pm  -  1 mph 1016.2mb 34f 15f
7:30pm  -  mph 1016.3mb 34f 15f
7:24pm  -  mph 1016.3mb 34f 15f
7:18pm  -  mph 1016.4mb 34f 15f
7:12pm  -  mph 1016.5mb 34f 15f
7:06pm  -  mph 1016.5mb 34f 14f
7:00pm  -  mph 1016.5mb 34f 14f
6:54pm  -  mph 1016.6mb 34f 13f
6:48pm 3
mph
- 34f -
6:42pm 2 5 mph - 34f -
6:36pm 5 6 mph - 34f -
6:30pm  -  mph 1016.7mb 34f 12f
6:24pm  -  mph 1016.7mb 34f 12f
6:18pm 3 6 mph 1016.6mb 34f 12f
6:12pm 5
mph
1016.5mb 34f 12f
6:06pm 3 6 mph 1016.5mb 33f 12f
6:00pm  -  mph 1016.6mb 33f 12f
5:54pm  -  mph 1016.6mb 33f 12f
5:48pm 3 5 mph 1016.6mb 33f 13f
5:42pm 1 5 mph 1016.6mb 33f 13f
5:36pm 2 3 mph 1016.5mb 33f 13f
5:30pm 3
mph
1016.5mb - -
5:24pm 2 3 mph 1016.5mb - -
5:18pm  -  2 mph 1016.5mb 33f 14f
5:12pm  -  3 mph 1016.4mb 33f 14f
5:06pm  -  3 mph 1016.5mb 33f 14f
5:00pm 2 5 mph 1016.5mb 34f 14f
4:54pm 3 5 mph 1016.5mb 34f 14f
4:48pm 3 6 mph 1016.5mb 34f 14f
4:42pm 2 3 mph 1016.5mb 34f 14f
4:36pm 2 6 mph 1016.4mb 34f 14f
4:30pm 6 7 mph 1016.4mb 34f 14f
4:24pm 5 7 mph 1016.4mb 34f 15f
4:18pm 6 9 mph 1016.3mb 34f 15f
4:12pm 9 13 mph 1016.2mb 34f 15f
4:06pm 8 13 mph 1016.2mb 34f 15f
4:00pm 9 14 mph 1016.3mb 34f 15f
3:54pm 11 15 mph 1016.3mb 34f 15f
3:48pm 7 11 mph 1016.3mb 34f 15f
3:42pm 7 10 mph 1016.2mb 34f 15f
3:36pm 9 14 mph 1016.1mb 34f 15f
3:30pm 6 13 mph 1016.1mb 34f 15f
3:24pm 8 16 mph 1016.1mb 34f 14f
3:18pm 9 16 mph 1016mb 34f 14f
3:12pm 8 14 mph 1016mb 34f 14f
3:06pm 7 14 mph 1015.9mb 34f 14f
3:00pm 11 14 mph 1015.8mb 34f 14f
2:54pm 8 13 mph 1015.8mb 34f 14f
2:48pm 10 14 mph 1015.8mb 34f 14f
2:42pm 8 11 mph 1015.8mb 34f 14f
2:36pm 8 11 mph 1015.7mb 33f 13f
2:30pm 7 14 mph 1015.7mb 33f 14f
2:24pm 7 13 mph 1015.7mb 33f 14f
2:18pm 13 16 mph 1015.8mb 33f 13f
2:12pm 9 13 mph 1015.9mb 33f 13f
2:06pm 11 14 mph 1015.9mb 33f 13f
2:00pm 9 13 mph 1015.9mb 33f 13f
1:54pm 7 14 mph 1016mb 33f 13f
1:48pm 11 17 mph 1016.1mb 33f 13f
1:42pm 10 14 mph 1016.1mb 33f 13f
1:36pm 9 15 mph 1016mb 33f 13f
1:30pm 9 10 mph 1016mb 33f 13f
1:24pm 7 13 mph 1016.1mb 33f 13f
1:18pm 7 14 mph 1016mb 33f 12f
1:12pm 10 16 mph 1016mb 33f 12f
1:06pm 7 14 mph 1016.2mb 33f 12f
1:00pm 10 14 mph 1016.3mb 33f 12f
12:54pm 9 14 mph 1016.4mb 33f 13f
12:48pm 10 17 mph 1016.5mb 33f 12f
12:42pm 11 17 mph 1016.4mb 33f 12f
12:36pm 11 20 mph 1016.5mb 33f 12f
12:30pm 15 21 mph 1016.6mb 33f 11f
12:24pm 14 18 mph 1016.7mb 33f 11f
12:18pm 11 21 mph 1016.9mb 33f 11f
12:12pm 14 17 mph 1016.8mb 33f 11f
12:06pm 14 17 mph 1016.9mb 34f 11f
12:00pm 11 21 mph 1016.8mb 34f 11f
11:54am 13 17 mph 1016.9mb 34f 11f
11:48am 13 16 mph 1016.9mb 33f 10f
11:42am 14 21 mph 1017.1mb 33f 10f
11:36am 13 20 mph 1017.1mb 34f 10f
11:30am 15 18 mph 1017.1mb 35f 10f
11:24am 15 21 mph 1017mb 35f 10f
11:18am 16 22 mph 1016.9mb 35f 10f
11:12am 15 21 mph 1016.9mb 35f 9f
11:06am 17 21 mph 1016.8mb 35f 9f
11:00am 14 21 mph 1016.8mb 35f 9f
10:54am 14 20 mph 1016.9mb 35f 9f
10:48am 16 18 mph 1017.1mb 35f 8f
10:42am 15 22 mph 1017.1mb 35f 8f
10:36am 16 21 mph 1017.3mb 35f 8f
10:30am 16 22 mph 1017.3mb 35f 8f
10:24am 15 23 mph 1017.6mb 35f 8f
10:18am 15 20 mph 1017.6mb 35f 7f
10:12am 15 21 mph 1017.7mb 34f 7f
10:06am 14 18 mph 1017.6mb 34f 7f
10:00am 17 22 mph 1017.4mb 34f 7f
9:54am 18 22 mph 1017.3mb 34f 7f
9:48am 15 22 mph 1017.4mb 34f 6f
9:42am 15 21 mph 1017.4mb 34f 6f
9:36am 17 24 mph 1017.3mb 34f 6f
9:30am 16 21 mph 1017.2mb 34f 6f
9:24am 17 23 mph 1017.4mb 34f 6f
9:18am 17 25 mph 1017.2mb 33f 6f
9:12am 22 25 mph 1017mb 33f 5f
9:06am 22 25 mph 1016.8mb 33f 5f
9:00am 22 25 mph 1016.7mb 33f 5f
8:54am 20 26 mph 1016.7mb 32f 4f
8:48am 21 26 mph 1016.8mb 32f 5f
8:42am 21 26 mph 1016.7mb 33f 5f
8:36am 22 28 mph 1016.8mb 32f 4f
8:30am 18 25 mph 1016.9mb 32f 4f
8:24am 20 25 mph 1016.9mb 32f 4f
8:18am 18 26 mph 1016.9mb 32f 4f
8:12am 21 25 mph 1016.7mb 32f 4f
8:06am 17 23 mph 1016.8mb 32f 4f
8:00am 16 24 mph 1016.9mb 33f 4f
7:54am 20 25 mph 1016.6mb 33f 3f
7:48am 22 26 mph 1016.3mb 33f 3f
7:42am 22 25 mph 1016.2mb 33f 3f
7:36am 22 29 mph 1016.2mb 33f 4f
7:30am 17 24 mph 1016.3mb 33f 4f
7:24am 18 24 mph 1016.1mb 33f 4f
7:18am 17 23 mph 1016.1mb 33f 3f
7:12am 15 18 mph 1016.3mb 33f 3f
7:06am 14 21 mph 1016.2mb 33f 4f
7:00am 15 21 mph 1016.2mb 33f 4f
6:54am 17 23 mph 1016.1mb 33f 3f
6:48am 17 23 mph 1015.9mb 34f 3f
6:42am 20 23 mph 1015.6mb 34f 3f
6:36am 21 26 mph 1015.4mb 34f 3f
6:30am 22 25 mph 1015.2mb 34f 3f
6:24am 22 26 mph 1015.1mb 34f 3f
6:18am 21 24 mph 1015.1mb 34f 3f
6:12am 18 23 mph 1015.2mb 34f 3f
6:06am 18 22 mph 1015.2mb 34f 3f
6:00am 17 22 mph 1015mb 34f 4f
5:54am 18 22 mph 1014.9mb 34f 3f
5:48am 18 22 mph 1014.9mb 34f 3f
5:42am 20 24 mph 1014.7mb 34f 3f
5:36am 16 22 mph 1014.7mb 34f 3f
5:30am 15 20 mph 1014.7mb 34f 3f
5:24am 14 22 mph 1014.8mb 34f 3f
5:18am 14 20 mph 1014.7mb 34f 3f
5:12am 15 20 mph 1014.6mb 34f 3f
5:06am 16 22 mph 1014.4mb 34f 4f
5:00am  -  mph - - 4f
4:54am  -  mph - - 4f
4:48am  -  mph 1014mb 34f 4f
4:42am  -  mph 1013.9mb 34f 4f
4:36am  -  mph 1013.9mb 34f 4f
4:30am 20 24 mph 1013.7mb 34f 4f
4:24am 21 25 mph 1013.4mb 34f 4f
4:18am 20 26 mph 1013.4mb 34f 4f
4:12am 21 24 mph 1013.3mb 34f 4f
4:06am 20 24 mph 1013.3mb 34f 4f
4:00am 18 23 mph 1013.3mb 34f 4f
3:54am 17 24 mph 1013.3mb 34f 4f
3:48am 15 22 mph 1013.2mb 34f 5f
3:42am 17 22 mph 1013mb 34f 4f
3:36am 16 22 mph 1013mb 34f 5f
3:30am 20 24 mph 1012.8mb 34f 5f
3:24am 21 24 mph 1012.6mb 34f 5f
3:18am 18 23 mph 1012.5mb 34f 6f
3:12am 21 25 mph 1012.3mb 34f 5f
3:06am 22 26 mph 1012.2mb 34f 6f
3:00am 21 26 mph 1012.1mb 34f 5f
2:54am 22 26 mph 1011.9mb 34f 6f
2:48am 23 28 mph 1011.9mb 34f 6f
2:42am 23 29 mph 1011.9mb 34f 6f
2:36am 18 29 mph 1011.9mb 34f 6f
2:30am 22 28 mph 1011.5mb 34f 6f
2:24am 23 28 mph 1011.4mb 34f 7f
2:18am 21 26 mph 1011.3mb 34f 6f
2:12am 21 24 mph 1011.2mb 34f 7f
2:06am 22 29 mph 1011.2mb 34f 7f
2:00am 22 30 mph 1011mb 34f 7f
1:54am 21 28 mph 1010.9mb 34f 8f
1:48am 23 29 mph 1010.7mb 34f 8f
1:42am 21 26 mph 1010.6mb 34f 8f
1:36am 22 24 mph 1010.4mb 34f 8f
1:30am 21 26 mph 1010.4mb 34f 8f
1:24am 23 29 mph 1010.2mb 34f 8f
1:18am 22 24 mph 1010.1mb 34f 8f
1:12am 20 24 mph 1010.1mb 34f 9f
1:06am 22 30 mph 1009.9mb 34f 9f
1:00am 29 34 mph 1009.7mb 34f 10f
12:54am 25 29 mph 1009.7mb 34f 9f
12:48am 23 32 mph 1009.7mb 34f 10f
12:42am 23 31 mph 1009.5mb 34f 11f
12:36am 25 30 mph 1009.4mb 34f 10f
12:30am 22 30 mph 1009.3mb 34f 11f
12:24am 24 32 mph 1009.2mb 34f 10f
12:18am 25 32 mph 1009.2mb 34f 11f
12:12am 26 34 mph 1009.1mb 34f 11f
12:06am 26 34 mph 1009mb 34f 11f
12:00am 25 31 mph 1008.9mb 34f 11f
Thu 02/11 11:54pm 22 28 mph 1008.9mb 34f 11f
11:48pm 28 32 mph 1008.8mb 34f 12f
11:42pm 23 28 mph 1008.8mb 34f 11f
11:36pm 23 28 mph 1008.6mb 34f 12f
11:30pm 23 28 mph 1008.5mb 34f 13f
11:24pm 22 25 mph 1008.3mb 33f 13f
11:18pm 21 26 mph 1008.3mb 33f 13f
11:12pm 24 29 mph 1008.1mb 33f 13f
11:06pm 21 30 mph 1008mb 34f 14f
11:00pm 24 30 mph 1007.9mb 35f 15f
10:54pm 29 34 mph 1007.7mb 35f 14f
10:48pm 22 26 mph 1007.7mb 35f 15f
10:42pm 26 32 mph 1007.5mb 36f 15f
10:36pm 22 28 mph 1007.4mb 36f 15f
10:30pm 22 28 mph 1007.3mb 36f 15f
10:24pm 24 29 mph 1007.1mb 36f 15f
10:18pm  -  mph 1007.1mb 36f 15f
10:12pm  -  mph 1007mb 36f 15f
10:06pm  -  mph 1006.9mb 36f 15f
10:00pm  -  mph 1006.7mb 36f 16f
9:54pm  -  mph 1006.6mb 36f 17f
9:48pm 24 31 mph - 36f 17f
9:42pm 24 29 mph - 36f 17f
9:36pm 24 31 mph - 36f 17f
9:30pm 20 26 mph 1006.4mb 36f -
9:24pm 24 30 mph 1006.2mb 36f -
9:18pm  -  mph 1006.1mb 36f -
9:12pm  -  mph 1005.9mb 36f -
9:06pm  -  mph 1005.8mb 36f -
9:00pm  -  mph - 36f 18f
8:54pm  -  mph - 35f 19f
8:48pm  -  mph 1005.4mb 35f 19f
8:42pm  -  mph 1005.3mb 35f 19f
8:36pm  -  mph 1005.2mb 35f 19f
8:30pm  -  mph 1005.1mb - -
8:24pm  -  mph 1005.1mb - -
8:18pm  -  mph 1005mb 35f -
8:12pm  -  mph 1004.9mb 35f -
8:06pm  -  mph 1004.9mb 35f -
8:00pm  -  mph 1004.9mb 35f 21f
7:54pm  -  mph 1004.7mb 35f 21f
7:48pm 22 30 mph 1004.6mb 35f 22f
7:42pm 23 26 mph 1004.4mb 35f 22f
7:36pm 20 24 mph 1004.5mb 36f 22f
7:30pm 21 29 mph 1004.4mb 36f 23f
7:24pm 22 28 mph 1004.2mb 36f 23f
7:18pm  -  mph 1004mb 36f 23f
7:12pm  -  mph 1003.9mb 36f 24f
7:06pm  -  mph 1003.9mb 36f 24f
7:00pm 17 21 mph 1003.8mb 36f 24f
6:54pm 16 20 mph 1003.7mb 36f 24f
6:48pm 17 20 mph 1003.6mb 36f -
6:42pm 16 20 mph 1003.6mb 36f -
6:36pm 15 20 mph 1003.6mb 36f -
6:30pm  -  mph 1003.5mb 36f -
6:24pm  -  mph 1003.4mb 36f -
6:18pm  -  mph 1003.4mb 36f 25f
6:12pm  -  mph 1003.3mb 36f 25f
6:06pm  -  mph 1003.2mb 36f 25f
6:00pm 13 17 mph 1003.2mb 36f 25f
5:54pm 14 17 mph 1003.1mb 36f 25f
5:48pm 13 17 mph 1003.1mb 36f -
5:42pm 13 17 mph 1003.1mb 36f -
5:36pm 16 18 mph 1003mb 36f -
5:30pm 13 16 mph 1002.9mb - 26f
5:24pm 13 16 mph 1002.9mb - 26f
5:18pm  -  mph 1002.8mb 36f 26f
5:12pm  -  mph 1002.8mb 36f 26f
5:06pm  -  mph 1002.7mb 36f 26f
5:00pm  -  mph 1002.6mb 37f 27f
4:54pm  -  mph 1002.6mb 37f 27f
4:48pm  -  mph - 37f 27f
4:42pm  -  mph - 36f 27f
4:36pm  -  mph - 36f 27f
4:30pm 8 13 mph 1002.5mb 36f 26f
4:24pm 11 15 mph 1002.4mb 36f 26f
4:18pm 13 15 mph 1002.2mb - -
4:12pm 9 14 mph 1002.2mb - -
4:06pm 9 13 mph 1002.1mb - -
4:00pm 8 11 mph 1002.2mb 36f 27f
3:54pm 7 10 mph 1002.2mb 36f 27f
3:48pm 7 9 mph 1002.1mb 36f 27f
3:42pm 8 10 mph 1002.1mb 37f 27f
3:36pm 7 10 mph 1002mb 36f 27f
3:30pm 9 11 mph 1002mb 37f 27f
3:24pm 6 9 mph 1001.9mb 36f 27f
3:18pm 8 10 mph 1001.8mb 36f 27f
3:12pm 6 10 mph 1001.8mb 36f 27f
3:06pm 7 9 mph 1001.7mb 36f 27f
3:00pm 7 10 mph 1001.6mb 36f 27f
2:54pm 7 11 mph 1001.5mb 36f 27f
2:48pm 9 13 mph 1001.3mb 36f 27f
2:42pm 8 10 mph 1001.3mb 36f 27f
2:36pm 9 11 mph 1001.2mb 36f 27f
2:30pm 9 10 mph 1001.1mb 36f 27f
2:24pm 7 11 mph 1001.1mb 36f 27f
2:18pm 8 11 mph 1001.1mb 36f 27f
2:12pm 7 9 mph 1001.1mb 36f 27f
2:06pm 8 10 mph 1001.1mb 36f 26f
2:00pm 10 13 mph 1001.1mb 36f 26f
1:54pm 9 11 mph 1001.1mb 36f 26f
1:48pm 8 13 mph 1001.1mb 36f 26f
1:42pm 10 13 mph 1001.1mb 36f 26f
1:36pm 8 13 mph 1001.2mb 36f 26f
1:30pm 9 14 mph 1001.2mb 36f 26f
1:24pm 10 16 mph 1001.2mb 36f 26f
1:18pm 13 16 mph 1001.2mb 36f 26f
1:12pm 13 16 mph 1001.2mb 36f 26f
1:06pm 10 14 mph 1001.3mb 36f 26f
1:00pm 10 14 mph 1001.3mb 36f 26f
12:54pm 10 15 mph 1001.4mb 36f 26f
12:48pm 9 14 mph 1001.3mb 36f 26f
12:42pm 9 14 mph 1001.3mb 36f 26f
12:36pm 10 15 mph 1001.4mb 36f 26f
12:30pm 14 16 mph 1001.4mb 36f 26f
12:24pm 11 16 mph 1001.4mb 36f 26f
12:18pm 14 16 mph 1001.4mb 36f 26f
12:12pm 14 17 mph 1001.5mb 36f 26f
12:06pm 14 16 mph 1001.5mb 36f 25f
12:00pm 10 16 mph 1001.6mb 36f 25f
11:54am 13 15 mph 1001.6mb 36f 26f
11:48am 13 16 mph 1001.8mb 36f 25f
11:42am 11 15 mph 1001.8mb 36f 26f
11:36am 10 15 mph 1001.8mb 36f 25f
11:30am 13 16 mph 1001.8mb 36f 25f
11:24am 11 16 mph 1001.9mb 36f 25f
11:18am 13 15 mph 1002.1mb 36f 25f
11:12am 13 14 mph 1002.1mb 37f 25f
11:06am 10 13 mph 1002.1mb 37f 25f
11:00am 9 14 mph 1002.1mb 37f -
10:54am 10 14 mph 1002.2mb 36f -
10:48am 10 14 mph 1002.3mb 36f 25f
10:42am 11 15 mph 1002.3mb 36f 24f
10:36am 11 14 mph 1002.3mb 36f 24f
10:30am 9 15 mph - 37f 24f
10:24am 10 14 mph - 37f 24f
10:18am 10 15 mph 1002mb 37f 24f
10:12am 9 14 mph 1002mb 37f 24f
10:06am 9 15 mph 1002.1mb 37f 24f
10:00am 11 14 mph 1002mb 37f 24f
9:54am 10 16 mph 1002mb 37f 24f
9:48am 10 15 mph 1002mb 37f 24f
9:42am 11 16 mph 1001.9mb 37f 24f
9:36am 11 15 mph 1002mb 37f 24f
9:30am 11 14 mph 1002mb 36f 24f
9:24am 13 15 mph 1001.9mb 37f 24f
9:18am 10 14 mph 1001.9mb 36f 24f
9:12am 13 16 mph 1001.9mb 36f 24f
9:06am 14 15 mph 1001.8mb 36f 24f
9:00am 11 14 mph 1001.8mb 36f 24f
8:54am 13 16 mph 1001.7mb 36f 24f
8:48am 10 15 mph 1001.7mb 36f 24f
8:42am 14 17 mph 1001.6mb 36f 24f
8:36am 11 15 mph 1001.5mb 36f 24f
8:30am 13 18 mph 1001.5mb 36f 24f
8:24am 11 18 mph 1001.5mb 36f 24f
8:18am 13 18 mph 1001.5mb 36f 24f
8:12am 11 20 mph 1001.4mb 36f 24f
8:06am 14 17 mph 1001.4mb 36f 24f
8:00am 16 22 mph 1001.5mb 36f 24f
7:54am 17 22 mph 1001.4mb 36f 24f
7:48am 15 18 mph 1001.4mb 36f 24f
7:42am 15 18 mph 1001.3mb 36f 24f
7:36am 14 20 mph 1001.1mb 36f 24f
7:30am 15 22 mph 1001mb 36f 24f
7:24am 14 18 mph 1001mb 36f 25f
7:18am 14 17 mph 1000.9mb 36f 25f
7:12am 14 18 mph 1001.1mb 36f 25f
7:06am 13 18 mph 1001.1mb 36f 24f
7:00am 14 17 mph 1001.1mb 36f 25f
6:54am 14 21 mph 1001mb 36f 25f
6:48am 16 22 mph 1001mb 36f 25f
6:42am 16 21 mph 1001.1mb 36f 25f
6:36am 14 18 mph 1001mb 36f 26f
6:30am 14 17 mph 1000.9mb 36f 26f
6:24am 15 17 mph 1000.8mb 36f 26f
6:18am 14 20 mph 1000.8mb 36f 26f
6:12am 13 22 mph 1000.8mb 36f 26f
6:06am 13 21 mph 1000.7mb 36f 26f
6:00am 16 23 mph 1000.4mb 36f 26f
5:54am 18 24 mph 1000.3mb 36f 26f
5:48am 18 24 mph 1000.2mb 36f 26f
5:42am 17 22 mph 1000.1mb 36f 27f
5:36am 15 22 mph 1000mb 36f 28f
5:30am 15 21 mph 999.7mb 36f 28f
5:24am 15 21 mph 999.7mb 36f 28f
5:18am  -  mph - - 28f
5:12am  -  mph - - 28f
5:06am  -  mph - - 29f
5:00am  -  mph - - 29f
4:54am  -  mph - - 29f
4:48am  -  mph - 37f 30f
4:42am  -  mph - 37f 30f
4:36am  -  mph - 37f 30f
4:30am 14 15 mph 999.3mb 37f 30f
4:24am 11 14 mph 999.3mb 37f 30f
4:18am 10 13 mph 999.3mb 37f 30f
4:12am 10 13 mph 999.2mb 37f 30f
4:06am 7 11 mph 999.2mb 37f 30f
4:00am 9 10 mph 999.2mb 37f 30f
3:54am 8 10 mph 999.1mb 37f 31f
3:48am 7 9 mph 999mb 37f 30f
3:42am 7 9 mph 999mb 37f 31f
3:36am 7 8 mph 999mb 37f 30f
3:30am 8 9 mph 998.9mb 37f 30f
3:24am 7 8 mph 998.8mb 37f 31f
3:18am 6 7 mph 998.8mb 37f 31f
3:12am 6 7 mph 998.8mb 37f 31f
3:06am 6
mph
998.8mb 37f 31f
3:00am 5 6 mph 998.9mb 37f 31f
2:54am 5
mph
999mb 37f 31f
2:48am 5
mph
999mb 37f 31f
2:42am 3
mph
999.1mb 37f 31f
2:36am  -  2 mph 999.2mb 37f 31f
2:30am 2 5 mph 999.3mb 37f 31f
2:24am 5 6 mph 999.2mb 37f 31f
2:18am 5 6 mph 999.1mb 37f 31f
2:12am 5
mph
999.1mb 37f 31f
2:06am 3 5 mph 999.1mb 37f 31f
2:00am 5 6 mph 999.2mb 37f 31f
1:54am 5
mph
999.2mb 37f 31f
1:48am 5
mph
999.2mb 37f 31f
1:42am 2 3 mph 999.2mb 37f 31f
1:36am 2 3 mph 999.2mb 37f 30f
1:30am 2
mph
999.2mb 37f 30f
1:24am 2 3 mph 999.1mb 37f 31f
1:18am 2 3 mph 999.1mb - -
1:12am 1
mph
999.1mb 37f 31f
1:06am 1 2 mph 999.1mb 37f 31f
1:00am 1 2 mph 999.1mb 36f 31f
12:54am 1 2 mph 999.1mb 36f 31f
12:48am 1 2 mph 999.1mb 36f 31f
12:42am 2
mph
999.1mb 36f 31f
12:36am  -  1 mph 999.1mb 36f 31f
12:30am  -  3 mph - - -
12:24am 3
mph
999.2mb 36f 31f
12:18am 2
mph
999.3mb 36f 31f
12:12am  -  2 mph 999.3mb 36f 31f
12:06am 2 3 mph 999.3mb 36f 31f
12:00am 3 5 mph 999.3mb 36f 31f
Wed 02/10 11:54pm 2 5 mph 999.4mb 36f 31f
11:48pm 3 5 mph 999.4mb 37f 31f
11:42pm 5
mph
999.4mb 37f 31f
11:36pm 5 6 mph 999.4mb 37f 31f
11:30pm 3
mph
999.5mb 37f 31f
11:24pm 2 3 mph 999.5mb 37f 31f
11:18pm 3
mph
999.5mb 37f 31f
11:12pm 1 2 mph 999.5mb 37f 31f
11:06pm 2 3 mph 999.5mb 37f 31f
11:00pm  -  1 mph 999.5mb 37f 31f
10:54pm  -  1 mph 999.5mb 37f 31f
10:48pm  -  1 mph 999.5mb 37f 31f
10:42pm  -  1 mph 999.6mb 37f 31f
10:36pm 1 2 mph 999.6mb 37f 31f
10:30pm 1 2 mph 999.6mb 37f 31f
10:24pm  -  1 mph 999.6mb 37f 31f
10:18pm 1 2 mph 999.7mb 37f 31f
10:12pm 1 2 mph 999.7mb 37f 31f
10:06pm  -  1 mph 999.7mb 37f 31f
10:00pm  -  mph 999.7mb 37f 31f
9:54pm  -  mph 999.8mb 37f 31f
9:48pm  -  1 mph - 37f 31f
9:42pm  -  2 mph - 37f 31f
9:36pm 1 2 mph - 37f 31f
9:30pm  -  mph 999.9mb 37f 31f
9:24pm  -  mph 1000mb 37f 31f
9:18pm 3 6 mph 1000mb 37f 31f
9:12pm 2 3 mph 1000mb 37f 31f
9:06pm 2 5 mph 1000mb 37f 31f
9:00pm  -  mph - 37f 31f
8:54pm  -  mph - 37f 31f
8:48pm  -  mph - - 31f
8:42pm  -  mph - - 31f
8:36pm  -  mph - - 31f
8:30pm 1 3 mph 1000.2mb 37f 30f
8:24pm 2 5 mph 1000.3mb 37f 30f
8:18pm 2 5 mph 1000.3mb 37f 30f
8:12pm 3 5 mph 1000.3mb 37f 30f
8:06pm 3 5 mph 1000.3mb 37f 30f
8:00pm 3 6 mph 1000.3mb 37f 30f
7:54pm 3 6 mph 1000.3mb 37f 30f
7:48pm 2 5 mph 1000.3mb 37f 30f
7:42pm 3 8 mph 1000.3mb 37f 30f
7:36pm 5 7 mph 1000.3mb 37f 30f
7:30pm  -  mph 1000.4mb 37f 30f
7:24pm  -  mph 1000.5mb 37f 30f
7:18pm  -  mph 1000.5mb 37f 30f
7:12pm  -  mph 1000.5mb 37f 30f
7:06pm  -  mph 1000.6mb 37f 30f
7:00pm  -  mph 1000.6mb 37f 30f
6:54pm  -  mph 1000.7mb 37f 30f
6:48pm 5 7 mph 1000.7mb 37f -
6:42pm 5 8 mph 1000.7mb 37f -
6:36pm 6 8 mph 1000.7mb 37f -
6:30pm  -  mph 1000.7mb 37f 30f
6:24pm  -  mph 1000.7mb 37f 30f
6:18pm  -  mph 1000.7mb 37f 30f
6:12pm  -  mph 1000.6mb 37f 30f
6:06pm  -  mph 1000.6mb 37f 30f
6:00pm  -  mph 1000.5mb 37f 30f
5:54pm  -  mph 1000.5mb 37f 30f
5:48pm 3 5 mph - 37f 31f
5:42pm 2 3 mph - 37f 31f
5:36pm 2 3 mph - 37f 31f
5:30pm 2 3 mph 1000.4mb 37f -
5:24pm 1 3 mph 1000.4mb 37f -
5:18pm  -  mph 1000.4mb 37f 31f
5:12pm  -  mph 1000.4mb 37f 31f
5:06pm  -  mph 1000.3mb 37f 31f
5:00pm 1
mph
- 37f 31f
4:54pm  -  mph - 37f 31f
4:48pm  -  mph 1000.1mb 37f 31f
4:42pm  -  mph 1000.1mb 37f 31f
4:36pm  -  1 mph 1000.2mb 37f 31f
4:30pm  -  1 mph 1000.1mb 37f 31f
4:24pm 1 2 mph 1000.1mb 37f 31f
4:18pm  -  mph 1000mb 37f 31f